Find Starlink 6216

NORAD ID: 56893 Int'l Des: 2023-083 Owner: SPXS Country: US Constellation: starlink operational
LEOCIRCULAR

現在のビュー

3D地球を読み込み中...

About Starlink 6216

Starlink 6216 (NORAD 56893) is a starlink constellation satellite (v1.5) launched Jun 12, 2023 by SPXS of US. It operates in LEO, CIRCULAR orbit with a mass of 305.00 kg.

Starlink 6216について

説明を読み込み中...

次回通過

Passes for default location (London). Set your location on the main map for personalized predictions.

高度履歴

Loading altitude history...

軌道要素

1 56893U 23083T 26171.22230554 -.00024530 00000-0 -88165-3 0 9994
2 56893 43.0020 225.9554 0001707 246.6100 113.4572 15.27695732167439
Epoch: Jun 20, 2026 • Age: 11 hours

現在のステータス

高度 485.9 km
速度 7.63 km/s
衛星直下点 37.81°N, 121.3°E
打ち上げ日 Jun 12, 2023
運用期間 3 years
タイプ internet

技術仕様

分類 Payload
質量 305.00 kg
乾燥質量 290.00 kg
総質量 305.00 kg
長さ 0.20 m
直径 2.80 m
スパン 9.00 m
形状 Box + pan
製造者 SPXS
バスタイプ Starlink
フェーズステータス In Orbit
所有者/国 SPXS/US

Most Searched